Location: La Sioule Rivi�re
(46.3664°N, 3.3197°E)
Time: 12:44:24
(UTC+00:00)

Meteor 2-10 Rocket - Pass Details

Date: 29 October 2020
Orbit: 733 x 885 km, 81.2° (Epoch: 23 November)

Event Time Altitude Azimuth Distance (km) Brightness Sun altitude
Rises 17:47:55 0° 175° (S) 3,297 6.8 -12.9°
Reaches altitude 10° 17:50:23 10° 170° (S) 2,348 6.0 -13.3°
Maximum altitude 17:55:28 52° 95° (E) 953 3.6 -14.2°
Drops below altitude 10° 18:00:26 10° 20° (NNE) 2,283 5.7 -15.1°
Sets 18:02:47 0° 16° (NNE) 3,197 6.5 -15.5°
